Theta_e
294 292 292 292 292 292 292 291 291 291 290 289 289 289 289 289 289 288 288 288 288 288 288 289 290 290 289 289 288 288 288 288 287 286 286 287 287 286 286 287 287 288 287
294 293 292 292 292 292 291 291 291 290 290 289 289 289 289 289 289 288 288 288 288 288 288 289 289 290 289 289 289 288 288 287 287 287 286 284 283 285 286 286 287 287 288
294 293 292 292 291 291 291 291 291 290 290 289 289 289 289 289 289 288 288 288 288 288 288 288 288 289 289 288 288 288 288 288 287 286 285 284 282 283 283 283 286 286 286
295 293 292 292 291 291 291 290 290 290 289 289 289 289 289 289 288 288 288 288 288 288 288 288 288 288 289 289 288 288 288 288 287 287 286 285 283 283 282 281 284 285 286
296 293 292 291 291 291 290 290 290 290 289 289 289 289 289 289 288 288 288 288 288 287 287 287 287 287 288 288 289 288 288 288 287 287 285 285 286 285 284 281 283 283 282
296 293 292 291 291 290 290 290 289 289 289 289 289 289 288 289 288 288 288 287 287 287 287 286 286 286 287 287 288 288 288 288 287 287 286 284 283 282 283 282 283 282 282
296 293 291 291 291 290 290 290 290 289 289 289 288 288 288 288 288 288 288 287 287 287 287 286 286 285 285 286 286 286 286 286 286 285 284 282 281 281 282 282 281 282 281
297 295 292 291 290 290 290 290 289 289 289 289 288 288 288 288 288 288 288 287 287 287 286 286 285 285 284 284 284 284 283 283 283 283 282 282 282 281 281 281 281 280 280
298 296 294 291 290 290 290 289 289 289 289 288 288 288 288 288 287 287 287 287 287 287 286 286 285 285 284 283 283 283 282 282 281 281 281 281 281 281 281 282 282 281 281
300 298 294 293 291 290 290 289 289 288 289 288 288 288 288 288 287 287 287 286 287 286 286 286 285 284 283 283 283 282 282 281 281 280 281 281 281 281 281 281 281 281 281
301 299 296 296 291 290 289 289 289 288 288 288 288 288 287 287 287 287 286 286 286 286 286 286 285 284 284 283 283 283 282 281 281 281 281 281 281 281 281 280 280 280 280
302 299 296 297 291 290 289 289 288 288 288 288 288 288 287 287 287 287 286 286 286 286 286 286 285 285 284 284 284 283 282 281 280 281 281 281 281 281 281 280 280 280 280
302 299 298 296 292 290 289 288 288 288 288 288 288 288 287 287 287 287 286 286 286 286 286 286 285 285 284 284 284 284 283 282 281 282 282 281 281 280 280 280 279 279 279
298 300 300 296 292 291 289 288 288 288 289 288 288 288 287 287 287 287 287 286 286 286 286 286 286 285 285 284 284 284 283 283 283 283 283 281 281 280 280 280 279 279 280
297 298 297 296 296 291 290 289 289 289 289 289 289 289 288 288 288 287 287 286 286 286 286 286 285 285 285 285 285 285 284 284 284 283 283 282 282 281 281 280 280 280 280
296 298 298 295 296 295 290 289 288 288 289 288 288 288 288 287 287 287 287 286 286 285 286 286 286 285 285 285 285 285 284 284 284 284 283 282 282 282 282 282 281 281 281
297 296 297 298 296 294 291 289 289 288 288 288 288 288 287 287 287 287 287 286 286 286 286 286 286 285 285 285 285 285 284 284 284 283 283 283 283 282 282 281 281 281 281
297 296 296 296 298 296 295 291 289 289 289 288 288 288 287 287 287 287 287 286 286 286 286 285 285 285 285 284 285 285 285 284 284 283 283 283 283 282 282 282 281 281 281
297 298 296 295 295 297 298 293 290 289 289 288 288 288 287 287 287 287 287 287 287 287 286 286 285 285 285 285 284 285 284 284 284 284 283 283 282 282 282 281 281 281 280
298 297 297 295 295 294 295 295 292 290 289 288 288 288 288 288 288 287 288 288 288 287 286 286 285 285 285 285 284 284 284 284 284 284 283 283 282 282 281 281 281 281 281
300 299 299 297 295 295 294 294 294 291 290 289 289 289 288 289 289 289 289 289 289 288 287 286 286 285 285 285 284 284 284 284 284 284 283 283 283 282 282 281 281 281 280
299 299 300 300 298 296 294 294 294 293 292 291 289 289 288 288 288 288 289 289 290 288 288 287 286 285 285 285 284 284 284 284 284 283 283 283 282 282 282 281 281 281 280
299 297 299 301 298 296 294 294 294 294 293 291 290 290 288 289 288 289 289 289 289 288 288 287 286 286 285 285 284 284 284 284 283 283 283 282 282 282 281 281 281 281 280
298 298 297 299 300 298 295 294 294 295 295 293 291 291 289 289 289 289 289 289 289 288 288 288 287 287 286 285 285 284 284 284 284 283 283 282 282 282 282 282 281 281 280
296 299 297 296 299 300 297 295 294 294 295 295 294 293 291 289 289 289 289 289 289 289 288 288 288 288 287 286 285 285 284 284 284 284 283 283 282 282 282 281 281 280 280
295 298 298 296 296 298 298 296 296 294 293 295 295 295 294 292 290 289 289 289 289 289 288 288 289 288 288 287 286 285 285 285 284 283 283 283 283 282 282 281 281 280 280
Wind_Speed
15 13 11 10 9 7 6 7 9 10 12 13 15 16 17 18 19 21 23 23 24 24 24 24 26 25 23 22 23 24 24 24 24 24 24 26 31 34 36 38 40 42 49
16 14 12 11 11 9 8 7 9 10 12 13 13 14 16 17 18 20 22 23 24 24 25 24 25 26 24 22 22 22 22 22 22 23 22 27 31 35 34 37 40 43 45
20 17 15 14 13 11 9 9 9 10 11 13 12 13 14 16 16 19 20 21 24 25 24 24 25 25 24 22 20 20 19 19 19 22 24 24 26 28 32 36 41 42 44
24 21 18 16 15 13 11 11 10 10 11 12 12 12 13 14 15 18 18 19 22 24 23 24 24 25 25 22 20 20 18 17 18 21 23 23 24 28 29 29 35 39 42
27 24 21 18 18 16 14 13 12 12 12 12 12 12 12 13 14 16 16 17 19 21 21 22 24 24 24 23 21 19 17 18 19 21 23 24 27 27 30 31 28 30 36
30 27 24 23 21 19 17 15 14 14 13 13 12 11 12 12 12 14 14 14 16 18 19 21 22 23 23 23 22 20 19 21 22 23 23 24 23 23 23 27 29 30 31
32 29 28 25 23 22 20 18 17 16 15 13 13 12 11 11 12 13 12 12 14 15 17 18 19 21 21 21 21 20 20 22 22 23 25 25 25 26 23 22 25 26 26
35 33 31 29 26 24 23 21 20 19 17 15 13 12 11 11 11 11 10 10 12 14 15 17 17 18 19 19 20 20 21 23 24 24 24 23 22 23 23 23 20 23 24
38 37 35 31 28 27 26 24 22 21 19 16 15 13 12 11 10 10 9 8 10 12 13 14 16 16 17 17 17 20 21 24 24 24 23 23 22 21 21 21 24 19 26
39 39 36 32 31 29 28 26 24 22 20 18 16 15 13 11 11 10 9 7 8 10 11 12 14 15 15 15 15 18 20 21 20 19 19 20 21 22 24 26 27 27 24
40 42 39 36 34 31 29 29 27 25 23 20 18 16 14 13 11 11 9 8 6 9 10 11 13 13 13 13 14 16 18 19 18 17 18 19 21 23 24 26 27 27 27
34 41 40 37 37 34 33 31 30 28 26 23 21 19 16 14 12 11 10 9 7 8 9 10 11 11 11 11 12 14 15 15 14 13 15 18 20 21 22 23 24 24 24
31 39 42 41 40 37 36 35 34 32 29 27 25 21 19 16 14 12 12 10 8 8 8 9 10 10 10 10 10 11 12 11 11 10 14 16 18 19 19 19 20 20 19
31 35 41 43 43 40 38 38 36 36 34 31 28 24 22 19 16 14 12 11 10 9 8 8 9 9 9 8 9 9 9 9 10 11 12 14 15 14 14 16 16 16 16
26 30 40 44 43 43 41 40 40 37 34 31 27 24 23 20 17 15 14 12 11 11 10 9 9 9 9 8 8 8 8 8 9 9 11 12 11 12 13 14 14 15 16
26 29 33 44 48 45 44 43 42 38 34 32 29 25 22 19 19 18 17 16 14 13 12 11 10 10 10 8 8 8 7 7 8 8 9 9 9 10 11 12 13 14 15
25 28 33 37 46 48 47 47 45 42 40 37 33 30 28 24 24 22 21 19 18 17 15 15 13 11 10 8 7 6 6 6 6 6 7 8 8 9 9 10 11 12 13
22 27 30 36 41 47 50 49 47 46 45 44 41 37 33 30 28 25 25 25 25 22 19 17 15 13 12 11 9 8 7 5 4 5 5 5 6 7 8 9 9 10 12
24 26 29 33 38 45 48 50 49 48 48 46 43 41 38 35 32 30 29 30 27 23 22 20 19 18 15 13 11 10 8 6 5 4 3 3 4 5 6 7 8 9 10
28 27 28 34 37 42 50 54 53 52 51 50 48 46 43 41 39 39 36 33 30 26 26 24 22 20 18 15 13 11 9 8 6 5 4 3 2 3 4 5 7 8 9
31 32 31 33 39 41 47 53 55 55 53 53 52 50 47 45 44 41 37 34 31 29 29 27 26 23 21 18 17 14 13 11 9 8 6 4 2 0 2 3 5 6 8
33 36 36 36 38 43 46 49 54 56 55 54 53 52 49 48 47 43 40 36 31 28 28 28 28 26 23 21 18 17 16 14 12 11 9 7 5 3 3 3 5 6 7
34 38 41 38 40 41 46 48 52 55 57 57 54 54 54 54 51 47 44 38 33 31 30 31 31 29 27 26 24 21 19 16 15 14 11 10 8 6 6 6 7 8 8
35 39 43 43 42 42 45 48 49 52 56 58 57 56 55 56 54 50 48 41 36 34 34 33 33 31 29 27 26 24 22 20 17 16 15 13 11 10 9 9 9 9 10
37 39 44 47 47 46 46 46 50 51 54 58 59 58 57 55 55 52 51 46 40 39 39 37 34 33 32 30 28 26 25 23 21 19 18 16 15 13 12 11 11 11 12
41 41 42 47 50 49 49 49 48 51 53 55 59 60 58 56 55 52 52 50 45 43 43 41 38 35 33 32 30 29 28 26 25 23 22 19 18 16 15 15 13 13 14
Wind_Direction
204 200 194 184 175 167 147 130 109 97 88 78 73 70 69 65 64 62 61 60 56 55 54 53 51 51 57 63 60 55 43 41 46 42 39 31 31 36 38 42 46 47 42
210 208 201 193 186 179 164 145 126 112 102 93 84 80 77 73 70 67 62 60 59 56 55 53 54 54 56 55 54 52 45 43 38 36 34 37 37 32 37 39 44 49 51
211 209 205 200 195 186 173 161 144 130 119 107 98 92 85 80 74 71 65 63 61 58 56 55 55 55 57 56 54 49 47 43 38 37 36 38 36 37 42 39 41 43 49
210 210 207 203 199 193 185 172 160 147 133 121 113 104 95 86 80 74 68 66 65 62 57 57 57 57 55 55 52 52 48 41 36 34 40 41 38 37 38 37 39 43 47
212 211 208 205 202 198 193 182 172 162 148 137 125 117 107 96 87 80 73 69 68 66 61 59 58 57 55 54 52 50 46 42 40 41 45 42 37 32 30 32 40 46 49
214 213 210 207 203 201 197 191 182 174 163 152 141 132 122 110 98 88 78 73 71 70 66 61 60 58 54 53 50 47 47 47 44 43 43 40 34 30 28 27 31 36 43
215 214 214 212 207 202 200 196 190 183 175 164 157 148 137 123 111 96 86 79 75 73 72 67 64 61 57 54 53 50 49 51 49 45 42 38 34 30 33 35 34 36 38
217 217 217 215 209 206 204 198 196 190 182 175 170 163 152 139 126 109 98 86 81 77 75 74 69 67 65 62 61 60 58 56 54 50 47 43 39 34 38 35 40 44 47
220 220 219 216 214 211 209 203 200 196 189 183 180 178 166 155 143 124 111 99 89 85 80 78 74 70 68 66 64 64 64 60 56 52 49 50 51 50 48 49 50 49 51
226 225 222 222 218 215 212 207 204 199 197 192 189 186 179 170 156 141 129 117 105 96 91 85 85 77 72 70 66 66 64 60 57 55 54 52 50 50 50 50 49 49 53
228 227 223 226 221 217 215 210 207 203 200 198 196 194 189 180 170 158 151 135 125 108 101 96 91 87 81 75 71 68 65 61 56 53 54 55 54 51 51 52 51 50 51
229 229 226 229 223 218 216 212 209 207 205 203 203 200 195 189 183 168 164 152 150 127 117 110 103 98 89 81 74 70 66 63 58 55 57 59 59 57 55 52 50 49 49
228 225 224 230 226 222 218 213 213 209 208 207 207 206 202 196 191 183 175 167 166 149 137 127 118 108 100 90 83 77 73 71 68 62 61 60 57 55 54 54 53 49 47
235 232 227 225 227 224 220 218 217 215 212 210 209 208 206 202 199 195 186 182 178 168 159 146 133 123 113 108 98 90 86 84 80 74 69 62 57 54 52 51 49 45 44
237 236 229 225 227 227 225 223 220 221 222 219 214 212 212 209 204 204 200 193 192 184 180 167 152 139 131 125 118 110 102 93 85 81 76 70 63 56 51 49 48 47 44
240 236 232 223 226 229 227 225 223 224 224 222 220 218 216 212 213 212 214 207 203 201 193 189 178 167 152 147 139 128 117 106 95 89 85 78 69 64 60 55 50 48 45
244 241 235 230 227 229 227 226 224 221 220 220 220 217 217 215 219 216 217 217 213 214 207 201 199 187 175 169 163 148 135 123 112 102 89 80 73 67 59 54 49 45 44
247 245 242 238 230 228 232 230 228 225 223 219 216 216 216 217 220 219 221 222 219 216 214 210 208 206 198 187 182 175 165 153 136 113 99 87 76 66 60 54 45 36 32
246 246 242 237 236 231 231 232 231 229 228 227 223 219 217 218 222 224 224 229 226 220 222 216 214 213 210 203 194 191 184 170 156 142 122 99 79 65 52 44 36 28 22
247 246 243 240 237 234 230 231 230 230 230 229 227 225 220 219 220 222 224 229 226 220 222 220 219 219 218 212 205 200 197 191 183 174 159 138 104 62 37 23 16 11 10
252 243 239 238 238 237 235 232 232 231 231 231 230 228 226 226 226 227 228 232 229 223 225 223 222 220 221 218 213 207 206 199 195 197 192 186 177 215 352 354 355 354 354
255 246 241 239 237 237 235 235 233 233 233 233 233 232 229 229 230 231 232 233 234 227 228 229 228 226 223 224 221 218 212 211 208 208 209 209 221 246 275 302 320 327 334
256 248 242 242 240 239 237 236 234 233 233 234 233 233 230 230 229 230 233 232 232 228 227 229 229 227 225 223 222 219 220 218 218 219 222 225 228 244 267 281 295 305 313
257 251 245 241 240 237 239 236 235 234 234 235 235 235 233 233 232 230 233 231 229 227 226 228 230 231 230 229 230 225 220 226 226 225 228 234 239 242 252 264 276 288 297
253 251 246 241 239 240 239 238 238 235 235 234 234 236 236 235 234 232 233 231 228 227 228 229 229 231 232 229 230 231 230 226 230 232 232 235 241 248 254 259 268 279 288
252 249 249 245 239 239 242 241 239 239 236 235 234 235 236 237 235 234 234 232 228 228 228 230 231 230 231 232 230 229 232 234 232 234 237 237 242 247 253 257 263 272 280